Regional Weather Roundup
Issued by NWS

Home | Current Version | Previous Version | Graphics & Text | Print | Product List | Glossary On
Versions: 1 2 3 4 5 6 7 8 9 10 11 12 13 14 15 16 17 18 19 20 21 22 23 24 25 26 27 28 29 30 31 32 33 34 35 36 37 38 39 40 41 42 43 44 45 46 47 48 49 50
000
ASUS43 KMKX 261821
RWRWI

WISCONSIN REGIONAL WEATHER ROUNDUP
NATIONAL WEATHER SERVICE MILWAUKEE/SULLIVAN WI
1200 PM CST SUN FEB 26 2017

NOTE: "FAIR" INDICATES FEW OR NO CLOUDS BELOW 12,000 FEET WITH NO
SIGNIFICANT WEATHER AND/OR OBSTRUCTIONS TO VISIBILITY.

WIZ001-002-006>008-014>016-023>028-261900-
NORTHWEST WISCONSIN

CITY           SKY/WX    TMP DP  RH WIND       PRES   REMARKS
SUPERIOR ARPT  CLOUDY    25  15  66 NW15G21   29.76R WCI  13
6HR MIN TEMP:  23; 6HR MAX TEMP:  29;

ASHLAND        CLOUDY    31  24  75 SW17G25   29.68S WCI  19
6HR MIN TEMP:  23; 6HR MAX TEMP:  30; 6HR PCP: TRACE;

HAYWARD        CLOUDY    30  19  63 W10G23    29.70R WCI  21
6HR MIN TEMP:  23; 6HR MAX TEMP:  30; 6HR PCP: TRACE;

SIREN          FLURRIES  31  22  67 W13G18    29.74R WCI  22
6HR MIN TEMP:  26; 6HR MAX TEMP:  32;

CUMBERLAND     CLOUDY    32  21  64 W9G15     29.73R WCI  24
RICE LAKE      CLOUDY    32  22  69 W14G21    29.76R WCI  22
6HR MIN TEMP:  24; 6HR MAX TEMP:  32;

CHETEK         CLOUDY    32  22  67 W9        29.75S WCI  24
6HR MIN TEMP:  23; 6HR MAX TEMP:  32;

LADYSMITH      PTSUNNY   32  22  66 SW14      29.73S WCI  22
6HR MIN TEMP:  22; 6HR MAX TEMP:  33;

EAU CLAIRE     CLOUDY    30  21  69 SW12      29.78R WCI  20
6HR MIN TEMP:  18; 6HR MAX TEMP:  30;

MENOMONIE      MOSUNNY   34  22  62 SW10      29.78S WCI  26
6HR MIN TEMP:  23; 6HR MAX TEMP:  34;

NEW RICHMOND   CLOUDY    33  21  61 W16G22    29.77R WCI  23
6HR MIN TEMP:  23; 6HR MAX TEMP:  34;

OSCEOLA        CLOUDY    33  23  64 W14G21    29.79S WCI  24
6HR MIN TEMP:  26; 6HR MAX TEMP:  33;

$$

WIZ003>005-009-010-017-018-261900-
NORTH CENTRAL WISCONSIN

CITY           SKY/WX    TMP DP  RH WIND       PRES   REMARKS
MANITOWISH WTR CLOUDY    28  21  75 SW10G18   29.64S WCI  18
6HR MIN TEMP:  19; 6HR MAX TEMP:  28;

ARBOR VITAE    CLOUDY    29  22  73 W14G20      N/A  WCI  19
6HR MIN TEMP:  19; 6HR MAX TEMP:  32;

WOODRUFF       CLOUDY    29  22  73 W14G20      N/A  WCI  19
6HR MIN TEMP:  19; 6HR MAX TEMP:  32;

RHINELANDER    CLOUDY    30  21  69 SW14G24   29.68F WCI  19
6HR MIN TEMP:  20; 6HR MAX TEMP:  30; 6HR PCP: TRACE;

EAGLE RIVER    CLOUDY    28  19  70 SW15      29.65F WCI  16
6HR MIN TEMP:  18; 6HR MAX TEMP:  28;

LAND O LAKES   CLOUDY    28  21  75 SW10G20   29.65F WCI  19
6HR MIN TEMP:  18; 6HR MAX TEMP:  28;

PHILLIPS       CLOUDY    29  21  72 SW12G18   29.68S WCI  19
6HR MIN TEMP:  20; 6HR MAX TEMP:  29;

TOMAHAWK       CLOUDY    30  20  65 SW7       29.70S WCI  23
6HR MIN TEMP:  19; 6HR MAX TEMP:  30;

MEDFORD        PTSUNNY   29  20  69 SW13      29.72S WCI  18
6HR MIN TEMP:  21; 6HR MAX TEMP:  29;

MERRILL        NOT AVBL
$$

WIZ029-030-035-036-043>047-261900-
CENTRAL WISCONSIN

CITY           SKY/WX    TMP DP  RH WIND       PRES   REMARKS
WAUSAU         PTSUNNY   31  20  63 W13       29.73S WCI  21
6HR MIN TEMP:  22; 6HR MAX TEMP:  31;

MOSINEE        MOSUNNY   32  21  64 SW16G25   29.76S WCI  21
MARSHFIELD     PTSUNNY   33  20  58 W14       29.75R WCI  23
6HR MIN TEMP:  21; 6HR MAX TEMP:  33;

STEVENS POINT  SUNNY     33  20  58 W14G20    29.76F WCI  23
6HR MIN TEMP:  20; 6HR MAX TEMP:  33;

WAUPACA        SUNNY     38  22  51 SW15      29.79S WCI  30
6HR MIN TEMP:  22; 6HR MAX TEMP:  38;

WAUTOMA        SUNNY     37  22  54 SW17      29.80S WCI  27
6HR MIN TEMP:  21; 6HR MAX TEMP:  37;

WISC RAPIDS    SUNNY     36  21  54 W15       29.78F WCI  27
6HR MIN TEMP:  22; 6HR MAX TEMP:  36;

CAMP DOUGLAS   MOSUNNY   37  23  56 W13       29.80S WCI  29
$$

WIZ011>013-019>022-031-037>040-048>050-261900-
NORTHEAST WISCONSIN

CITY           SKY/WX    TMP DP  RH WIND       PRES   REMARKS
ANTIGO         CLOUDY    30  20  65 SW16G24   29.71S WCI  19
6HR MIN TEMP:  18; 6HR MAX TEMP:  30;

SHAWANO        SUNNY     37  21  54 SW12G20   29.77F WCI  29
6HR MIN TEMP:  22; 6HR MAX TEMP:  37;

OCONTO         PTSUNNY   33  21  61 SW15G22   29.77F WCI  23
6HR MIN TEMP:  21; 6HR MAX TEMP:  33;

STURGEON BAY   CLOUDY    34  23  64 SW21G26   29.77F WCI  22
6HR MIN TEMP:  21; 6HR MAX TEMP:  34; 6HR PCP:  0.01;

GREEN BAY      SUNNY     34  24  67 SW13      29.79F WCI  25
6HR MIN TEMP:  22; 6HR MAX TEMP:  34; 6HR PCP: TRACE;

MANITOWOC      PTSUNNY   35  21  56 SW16G25   29.82F WCI  25
6HR MIN TEMP:  22; 6HR MAX TEMP:  35; 6HR PCP: TRACE;

APPLETON       MOSUNNY   34  19  55 SW15      29.78S WCI  24
CLINTONVILLE   MOSUNNY   34  21  60 SW15      29.78S WCI  24
OSHKOSH        SUNNY     34  22  61 SW10G20   29.80S WCI  26
6HR MIN TEMP:  23; 6HR MAX TEMP:  34;

$$

WIZ032>034-041-042-053>061-261900-
SOUTHWEST WISCONSIN

CITY           SKY/WX    TMP DP  RH WIND       PRES   REMARKS
LA CROSSE      SUNNY     38  24  57 SW14      29.83S WCI  30
6HR MIN TEMP:  28; 6HR MAX TEMP:  39;

SPARTA         SUNNY     38  23  55 W12       29.82F WCI  31
6HR MIN TEMP:  24; 6HR MAX TEMP:  38;

VIROQUA        SUNNY     36  24  63 SW12      29.82F WCI  27
6HR MIN TEMP:  22; 6HR MAX TEMP:  36;

BOSCOBEL       SUNNY     39  24  55 SW13      29.88S WCI  31
6HR MIN TEMP:  29; 6HR MAX TEMP:  39;

PRAIRIE DU CHI SUNNY     37  25  63 SW10      29.88F WCI  30
6HR MIN TEMP:  30; 6HR MAX TEMP:  37; 6HR PCP:  0.09;

PLATTEVILLE    MOSUNNY   37  30  74 SW20G26   29.90R WCI  27
6HR MIN TEMP:  28; 6HR MAX TEMP:  37;

$$

WIZ056-057-062-063-064-067-068-261900-
SOUTH CENTRAL WISCONSIN

CITY           SKY/WX    TMP DP  RH WIND       PRES   REMARKS
REEDSBURG      SUNNY     37  24  59 SW14      29.84S WCI  28
6HR MIN TEMP:  24; 6HR MAX TEMP:  36; 6HR PCP:  0.06;

BARABOO/DELLS  SUNNY     36  22  57 W15G21    29.84R WCI  27
6HR MIN TEMP:  24; 6HR MAX TEMP:  36;

LONE ROCK      SUNNY     37  25  61 W12       29.88R WCI  29
6HR MIN TEMP:  28; 6HR MAX TEMP:  37; 6HR PCP: TRACE;

MINERAL POINT  SUNNY     36  30  80 SW6       29.87R WCI  31
MADISON        MOSUNNY   36  25  64 SW12      29.86R WCI  28
6HR MIN TEMP:  25; 6HR MAX TEMP:  36;

MIDDLETON      SUNNY     37  28  71 W15G22    29.87R WCI  28
6HR MIN TEMP:  28; 6HR MAX TEMP:  37;

WATERTOWN      SUNNY     37  27  67 SW20      29.86S WCI  26
6HR MIN TEMP:  23; 6HR MAX TEMP:  37;

MONROE         MOSUNNY   37  27  65 SW25      29.88S WCI  26
JANESVILLE     MOSUNNY   41  27  56 SW17G24   29.89S
$$

WIZ051-052-058>065-066-070>072-261900-
SOUTHEAST WISCONSIN

CITY           SKY/WX    TMP DP  RH WIND       PRES   REMARKS
MILWAUKEE      MOSUNNY   40  22  48 SW21G33   29.87F WCI  30
6HR MIN TEMP:  25; 6HR MAX TEMP:  40;

WAUKESHA       MOSUNNY   36  18  48 SW15G35   29.87F WCI  26
MILWAUKEE/TIMM SUNNY     37  19  48 SW24G30   29.87F WCI  26
RACINE         SUNNY     41  22  46 SW16G30   29.90S
6HR MIN TEMP:  25; 6HR MAX TEMP:  41;

KENOSHA        SUNNY     40  23  50 SW17G36   29.89F WCI  31
6HR MIN TEMP:  25; 6HR MAX TEMP:  40;

FOND DU LAC    SUNNY     35  21  56 SW17G25   29.82S WCI  25
6HR MIN TEMP:  24; 6HR MAX TEMP:  35; 6HR PCP: TRACE;

SHEBOYGAN      PTSUNNY   35  22  58 SW18      29.82F WCI  24
6HR MIN TEMP:  21; 6HR MAX TEMP:  35;

WEST BEND      MOSUNNY   36  27  69 SW17G25   29.83F WCI  25
JUNEAU         SUNNY     34  25  69 SW13      29.86S WCI  25
6HR MIN TEMP:  23; 6HR MAX TEMP:  34;

$$

LSZ147-162-261900-
LAKE SUPERIOR

STATION/POSITION TIME  TEMP    WIND        PRES    WAVE
                       AIR SEA DIR/SP/G            HT/PER
                 (UTC) (F)     (DEG/KT/KT) (MB)    (FT/S)
DEVILS ISLAND    1800   24     300/ 19/ 22 1006.4R
PORT WING        1740   24     310/ 16/ 24 1006.8R
SAXON HARBOR     1730   31     210/  7/ 13 1004.7S
$$

LMZ867-665-643>646-261900-
LAKE MICHIGAN

STATION/POSITION TIME  TEMP    WIND        PRES    WAVE
                       AIR SEA DIR/SP/G            HT/PER
                 (UTC) (F)     (DEG/KT/KT) (MB)    (FT/S)
CHAMBERS ISLAND  1740   33     190/ 10/ 17 1007.5F
NORTHPORT PIER   1800   33     210/  9/ 22 1007.5
SISTER BAY       1735   34        CALM       N/A
ALGOMA LAKESHORE 1641          23


USA.gov is the U.S. government's official web portal to all federal, state and local government web resources and services.